+ View the NASA Portal
+ Center for Near-Earth Object Studies
JPL Small-Body Database Browser
Search:
[
help
]
13882 (6637 P-L)
Classification:
Main-belt Asteroid
SPK-ID:
2013882
[
Ephemeris
|
Orbit Diagram
|
Orbital Elements
|
Mission Design
|
Physical Parameters
|
Discovery Circumstances
|
Close-Approach Data
]
[ show orbit diagram ]
Orbital Elements at Epoch 2459200.5 (2020-Dec-17.0) TDB
Reference:
JPL 28
(heliocentric ecliptic J2000)
Element
Value
Uncertainty (1-sigma)
Units
e
.1135623005449445
3.2275e-08
a
2.285808561567994
7.3644e-09
au
q
2.026226882711002
7.631e-08
au
i
4.805057434983564
3.8776e-06
deg
node
157.5315807557462
4.6439e-05
deg
peri
322.1472439570328
5.1449e-05
deg
M
44.71565818179951
2.0512e-05
deg
t
p
2459043.711091658589
(2020-Jul-13.21109166)
7.1995e-05
TDB
period
1262.287290358666
3.46
6.1002e-06
1.67e-08
d
yr
n
.2851965655914269
1.3783e-09
deg/d
Q
2.545390240424986
8.2007e-09
au
Orbit Determination Parameters
# obs. used (total)
1300
data-arc span
22027 days (60.31 yr)
first obs. used
1960-09-24
last obs. used
2021-01-14
planetary ephem.
DE431
SB-pert. ephem.
SB431-N16
condition code
0
norm. resid. RMS
.52153
source
ORB
producer
Otto Matic
solution date
2021-Feb-24 02:14:47
Additional Information
Earth MOID
= 1.04438 au
Jupiter MOID
= 2.5141 au
T_jup
= 3.589
[ hide covariance matrix ]
Orbital Elements at Epoch 2456951.5 (2014-Oct-21.0) TDB
Reference:
JPL 28
(heliocentric ecliptic J2000)
Element
Value
Uncertainty (1-sigma)
Units
e
.112892978830179
3.2336e-08
q
2.02780802116839
7.6372e-08
au
t
p
2456518.946011600908
(2013-Aug-14.44601160)
7.4876e-05
TDB
node
157.5821581397418
4.6428e-05
deg
peri
322.1556664254139
5.1507e-05
deg
i
4.805237383426052
3.8788e-06
deg
Orbit Determination Parameters
# obs. used (total)
1300
data-arc span
22027 days (60.31 yr)
first obs. used
1960-09-24
last obs. used
2021-01-14
planetary ephem.
DE431
SB-pert. ephem.
SB431-N16
condition code
0
norm. resid. RMS
.52153
source
ORB
producer
Otto Matic
solution date
2021-Feb-24 02:14:47
Additional Information
Jupiter MOID
= 2.5141 au
T_jup
= 3.589
Orbit Covariance (6×6)
e
q
tp
node
peri
i
e
1.04564821078547E-15
-2.461721585490267E-15
6.408766153300123E-13
-4.054357066398985E-15
2.256758135536984E-13
-2.454313342020801E-16
q
-2.461721585490267E-15
5.832675173004915E-15
-1.593279900095378E-12
1.008156369351469E-14
-5.537823360740301E-13
6.880523894793542E-16
tp
6.408766153300123E-13
-1.593279900095378E-12
5.606399901692311E-9
-1.567865893174935E-11
1.68306041116526E-9
3.313549730060941E-12
node
-4.054357066398985E-15
1.008156369351469E-14
-1.567865893174935E-11
2.155542731945384E-9
-2.15212352102779E-9
6.113041409939514E-11
peri
2.256758135536984E-13
-5.537823360740301E-13
1.68306041116526E-9
-2.15212352102779E-9
2.652943264444822E-9
-5.995864274293537E-11
i
-2.454313342020801E-16
6.880523894793542E-16
3.313549730060941E-12
6.113041409939514E-11
-5.995864274293537E-11
1.504471337299457E-11
[
Ephemeris
|
Orbit Diagram
|
Orbital Elements
|
Mission Design
|
Physical Parameters
|
Discovery Circumstances
|
Close-Approach Data
]
Physical Parameter Table
Parameter
Symbol
Value
Units
Sigma
Reference
Notes
absolute magnitude
H
15.29
n/a
E2021B10
13882 (6637 P-L)
Discovered 1960-Sep-24 by van Houten, C. J., van Houten-Groeneveld, I., Gehrels, T. at Palomar
Reference:
20000222/Numbers.arc
Last Updated:
2004-04-19
[ show close-approach data ]
Alternate Designations
6637 P-L
= 1997 LD17 = 1998 RH50
[
Ephemeris
|
Orbit Diagram
|
Orbital Elements
|
Mission Design
|
Physical Parameters
|
Discovery Circumstances
|
Close-Approach Data
]
2021-Feb-28 21:57 UT
(server date/time)
Site Manager:
Ryan S. Park
Webmaster
:
Alan B. Chamberlin